Wind_Speed
41 46 50 53 58 63 60 55 52 51 49 46 49 44 44 40 38 37 34 21 21 18 23 24 27 26 26 24 24 25 24 26 25 24 23 24 21 22 25 22 22 19 17 15 12 12 12 17 17
35 45 51 55 60 62 60 59 56 53 53 50 50 49 44 44 43 41 43 34 25 22 22 22 27 30 28 29 29 26 24 23 24 26 22 21 16 16 24 26 25 22 19 18 17 14 14 17 15
35 36 48 56 61 61 58 59 56 56 55 52 52 51 48 45 48 47 47 47 39 34 30 26 28 30 29 30 28 27 25 25 24 22 19 15 12 11 10 15 18 27 29 18 18 12 8 13 15
37 36 39 48 61 62 58 61 59 59 60 56 56 57 54 54 51 51 52 54 52 47 41 36 31 29 35 35 33 31 30 28 24 22 19 15 15 13 13 11 17 23 26 27 18 15 15 15 18
39 40 42 40 45 59 59 60 63 64 62 60 59 59 59 58 57 56 53 58 61 59 52 45 41 35 33 39 38 37 34 34 31 26 22 18 19 13 11 11 14 15 16 24 16 18 19 20 20
38 42 44 43 43 43 54 61 63 68 64 64 65 64 63 61 62 60 57 60 64 62 60 54 48 44 37 37 39 39 37 36 37 33 31 26 21 20 21 19 18 15 14 20 19 19 21 24 22
35 39 42 45 44 45 42 47 60 68 71 70 70 70 69 67 66 64 62 62 65 66 62 59 55 50 47 40 40 41 40 42 41 39 35 30 28 25 25 24 24 20 19 21 20 23 24 25 25
35 37 40 41 46 49 49 47 48 62 72 72 72 72 73 73 74 70 66 64 65 67 68 61 60 55 52 49 45 43 43 44 42 43 42 37 33 32 32 30 29 25 22 23 22 25 24 25 26
30 33 38 42 43 45 50 54 53 52 62 73 75 76 75 77 77 75 69 65 68 70 69 68 63 62 58 54 53 49 45 45 47 45 43 45 39 38 38 35 33 31 24 26 26 24 27 31 36
33 35 36 38 42 45 50 51 55 58 57 59 71 78 76 80 80 78 76 72 71 73 72 72 68 66 65 60 57 54 51 48 47 48 45 44 43 40 40 38 38 31 27 28 28 28 33 38 40
29 33 36 40 43 44 46 50 54 58 59 63 64 67 77 79 82 81 81 78 76 77 76 74 72 71 66 68 61 57 55 52 49 49 49 46 45 44 41 40 38 38 34 32 37 35 37 37 40
30 31 35 37 41 45 46 50 53 57 60 64 66 71 70 80 84 83 84 84 82 81 81 79 78 74 73 70 69 65 62 58 55 51 49 51 52 48 45 44 42 41 39 38 38 39 37 39 40
33 35 34 36 39 41 45 52 56 60 60 61 68 71 74 75 80 84 87 85 85 85 82 83 82 82 80 74 72 72 68 65 62 57 54 51 50 51 49 46 46 43 42 41 41 42 40 38 40
36 36 36 37 37 38 46 51 53 59 63 65 65 71 77 79 79 81 82 88 86 86 87 88 88 85 84 82 76 74 74 71 67 62 60 56 55 50 50 48 45 45 45 46 43 40 37 35 36
38 37 36 40 40 41 45 50 53 58 61 67 71 72 75 79 83 82 83 83 88 87 88 91 91 92 91 87 83 81 76 76 72 66 61 60 58 57 52 48 47 48 43 43 40 37 36 36 37
41 41 39 40 40 38 41 48 54 58 56 63 70 75 77 80 82 83 86 85 86 86 89 93 94 95 96 95 90 86 84 79 76 73 69 64 62 59 54 50 49 48 52 48 40 36 38 38 39
43 44 45 44 41 41 38 43 47 52 56 59 64 69 76 80 85 87 85 87 88 89 88 91 94 97 99 100 96 92 89 87 83 76 73 72 69 64 60 56 52 47 51 54 49 41 38 42 43
44 45 46 46 44 44 43 45 45 49 51 58 58 63 70 77 82 86 86 87 88 90 90 91 93 96 100 102 102 98 95 92 90 84 78 74 68 70 65 59 57 56 60 61 56 45 40 43 45
48 49 51 49 45 47 48 50 48 47 46 47 56 62 63 67 75 80 88 90 90 90 91 92 94 96 97 101 102 103 101 99 94 91 85 81 78 71 62 62 59 51 53 50 44 40 40 43 47
51 51 52 51 49 48 52 56 52 50 50 49 49 53 61 66 68 74 79 88 92 92 92 93 95 98 99 100 102 102 104 104 101 97 91 87 83 81 77 68 64 58 48 49 43 43 44 47 49
53 51 54 52 52 51 50 60 53 52 51 50 49 52 53 59 64 70 73 78 86 94 97 97 97 98 100 102 101 102 103 103 105 102 98 93 87 82 77 77 72 64 61 56 57 49 47 51 49
56 53 54 54 52 53 51 54 60 56 52 49 47 45 49 52 57 65 70 73 79 88 98 102 101 101 102 103 106 105 101 101 104 105 103 98 96 89 82 78 73 66 65 67 67 59 53 42 34
57 56 55 53 53 54 52 53 61 57 58 54 47 43 44 50 54 59 63 68 72 76 85 95 103 104 103 104 105 104 104 103 103 104 104 103 99 95 90 86 83 75 66 66 63 58 47 48 37
60 59 57 54 53 56 55 55 60 56 58 57 54 49 44 43 49 54 59 61 65 70 75 84 95 100 106 105 106 105 103 104 102 102 102 103 103 100 94 87 83 80 75 69 58 49 43 47 42
63 62 57 53 53 57 57 58 65 60 58 56 55 49 46 45 42 46 49 55 59 63 68 74 83 93 100 105 107 104 103 101 102 101 101 98 98 98 95 93 86 81 77 55 64 59 48 48 45
62 60 58 53 54 55 60 62 68 67 59 53 50 44 39 41 41 43 46 50 56 59 63 68 75 82 90 97 103 105 104 102 100 101 102 99 95 93 91 90 89 83 76 69 67 58 50 50 42
62 59 58 60 58 55 59 60 67 72 63 58 47 43 41 41 43 44 44 45 48 54 57 62 66 69 78 85 95 103 105 103 102 99 100 98 96 91 89 86 85 81 83 73 63 59 52 48 39
64 63 62 66 62 60 62 60 64 72 65 62 48 47 46 44 46 46 45 48 51 53 55 55 58 63 66 72 83 96 103 103 102 103 101 96 95 93 89 86 85 81 78 70 65 60 54 42 36
72 68 70 68 70 68 66 62 68 72 65 67 57 49 45 46 48 51 50 45 50 51 53 50 53 57 61 65 72 80 90 99 99 99 101 97 93 92 91 86 82 80 76 68 65 61 55 43 42
77 77 80 81 76 76 77 62 72 71 72 71 65 52 48 47 51 51 54 53 52 51 49 51 53 52 56 59 66 70 79 86 94 95 95 96 93 93 90 86 83 78 71 65 59 55 52 45 44
Wind_Direction
228 227 229 228 228 232 228 222 223 222 223 220 218 225 230 238 240 236 224 236 235 229 233 240 239 236 233 224 227 228 224 228 233 238 243 252 266 279 268 266 278 288 294 296 297 276 278 283 297
235 231 229 231 230 231 231 227 222 222 224 219 224 227 229 235 242 243 232 222 233 235 239 237 235 233 238 231 233 233 234 236 243 250 253 252 268 278 280 266 265 273 278 286 288 280 271 282 290
237 238 235 233 235 234 236 231 226 226 226 227 226 227 233 233 236 241 236 227 226 230 235 228 232 235 237 236 232 234 239 241 241 245 246 252 267 274 272 286 278 288 286 281 284 291 271 260 277
239 240 240 238 237 236 236 237 234 229 228 230 231 226 230 231 233 236 241 235 230 234 235 232 230 234 234 232 234 240 241 245 243 243 249 253 250 280 256 260 277 286 278 281 274 265 262 271 276
244 244 245 244 245 242 236 237 237 236 231 232 236 238 232 235 235 235 239 240 238 236 237 236 235 234 236 236 233 238 240 247 245 244 247 253 249 258 263 248 280 289 290 278 264 260 265 271 283
248 248 246 247 247 248 242 240 238 238 234 234 235 239 240 239 237 236 235 239 242 240 242 239 240 237 235 237 237 238 237 243 245 248 252 248 253 249 268 274 273 285 288 271 263 257 269 275 291
250 250 251 249 248 251 247 241 242 241 239 238 239 236 239 241 238 238 237 237 241 241 240 242 237 241 237 236 236 239 241 239 242 246 249 250 255 254 258 267 264 278 280 253 247 262 268 277 294
255 253 252 250 251 250 250 246 241 241 241 240 240 241 238 238 239 238 236 238 240 244 240 238 243 237 240 238 236 236 238 240 240 245 251 252 252 258 254 260 266 272 272 246 244 254 263 282 295
265 262 260 256 253 252 253 251 247 243 243 241 239 240 240 239 240 240 241 239 242 243 245 241 236 242 240 238 239 236 239 240 239 241 248 254 253 256 257 256 261 267 268 257 260 262 279 290 302
272 266 263 262 259 255 253 252 254 251 248 247 244 239 241 240 240 241 241 243 242 241 244 244 241 238 239 241 240 240 239 240 241 243 245 250 256 257 255 260 261 268 270 263 268 275 288 295 298
284 271 262 260 260 260 257 255 253 252 251 250 249 245 241 241 242 241 242 240 241 242 243 244 244 244 242 240 240 242 242 243 245 245 244 246 250 253 257 258 262 267 270 269 274 279 285 293 296
293 282 267 260 259 259 258 257 256 254 253 250 248 249 245 240 241 240 241 243 241 240 241 244 243 242 246 243 241 242 242 243 244 246 247 249 251 254 255 256 258 262 267 271 273 282 281 289 297
296 292 277 262 256 258 261 257 257 253 252 252 252 250 249 244 240 240 240 240 243 243 241 243 245 244 240 244 244 243 244 244 244 245 246 247 250 252 255 257 259 262 265 270 275 282 284 292 295
299 296 287 281 277 269 265 258 257 257 257 255 253 253 250 250 244 240 241 240 239 242 243 242 243 244 245 240 241 244 243 245 246 247 248 249 251 253 255 256 261 263 267 273 278 282 286 285 292
298 296 289 285 284 282 279 275 267 262 255 254 254 254 254 252 249 246 242 241 240 236 239 243 242 243 244 244 241 241 244 244 245 246 246 248 249 251 253 257 260 264 266 268 274 275 281 285 290
296 297 293 291 288 286 285 282 276 270 268 262 254 252 252 254 253 252 248 244 241 238 236 237 241 242 244 244 244 242 242 244 244 244 246 246 247 248 251 254 257 264 266 260 263 267 274 281 289
295 298 298 296 289 287 284 291 289 285 275 264 258 255 251 250 252 252 251 248 245 241 236 237 237 240 242 244 244 244 243 244 244 244 245 247 247 248 249 251 254 260 261 266 260 259 270 280 288
293 296 295 294 294 295 297 294 299 296 290 281 268 257 252 249 246 250 251 250 248 245 241 237 237 238 240 242 243 243 243 244 244 243 244 244 248 247 249 250 252 259 265 262 262 267 276 280 285
293 296 299 302 297 300 303 301 304 302 289 277 273 271 262 256 250 245 243 245 247 246 245 241 239 237 238 241 242 242 243 242 243 244 244 245 246 246 249 248 250 256 257 253 262 269 276 278 282
292 297 300 302 298 301 303 301 305 310 304 290 277 268 265 262 256 249 246 243 243 244 245 243 241 239 237 237 241 241 241 241 241 241 242 243 244 246 247 249 252 251 257 252 259 269 273 276 282
291 295 298 299 299 298 302 301 305 309 308 302 290 280 271 262 258 255 250 245 242 241 240 241 241 241 239 237 236 239 240 241 240 240 241 242 243 245 246 248 250 250 250 250 261 271 274 274 278
288 293 295 295 296 296 300 302 307 310 309 305 295 289 278 269 261 256 254 249 243 242 239 238 239 240 240 239 237 235 238 240 240 241 239 241 243 243 244 247 249 252 254 255 259 269 273 266 275
288 291 292 294 295 294 298 300 303 310 311 307 301 291 287 275 262 260 257 253 249 246 243 243 239 240 240 240 240 238 236 238 239 240 241 241 241 243 243 244 247 248 250 254 260 261 262 265 271
286 289 293 293 293 293 298 301 301 307 310 309 305 302 294 274 267 261 257 254 254 251 247 243 241 240 240 241 241 240 239 237 238 238 238 238 240 240 241 242 244 246 246 251 253 250 264 268 261
287 289 289 291 294 294 297 301 300 304 307 307 306 305 300 283 268 266 265 260 255 254 252 247 243 241 239 239 241 242 240 240 238 238 239 238 237 238 238 239 239 242 245 248 251 250 257 258 262
286 286 288 287 288 291 296 301 300 301 306 306 305 304 303 293 287 273 266 265 261 259 257 253 248 244 241 241 240 241 241 240 239 239 238 237 236 236 234 235 237 236 238 228 241 244 246 254 259
283 284 285 287 287 288 292 297 301 301 306 308 306 302 299 289 283 275 268 258 261 262 260 258 254 248 244 241 239 240 241 239 239 238 238 237 236 233 234 231 231 231 237 237 237 243 244 246 256
280 280 281 282 283 286 290 294 295 296 304 308 305 299 299 294 281 275 274 270 266 259 257 260 259 257 252 246 241 239 238 237 237 236 236 235 234 232 231 230 229 230 234 231 235 236 240 243 254
281 280 281 282 284 286 287 291 294 299 302 302 303 300 298 289 279 278 276 268 261 257 260 258 255 251 252 251 245 239 239 239 236 235 234 232 231 231 229 228 227 227 229 225 230 235 236 236 245
282 284 285 284 285 287 287 290 293 296 296 298 300 297 294 285 275 274 271 273 272 266 261 254 251 250 248 246 247 245 242 237 238 233 230 230 227 228 227 224 225 223 223 220 223 226 228 232 234
Height
10903 10906 10907 10907 10907 10907 10911 10923 10928 10933 10938 10943 10946 10947 10948 10947 10949 10955 10957 10956 10958 10961 10963 10964 10965 10969 10971 10972 10975 10976 10978 10979 10981 10983 10983 10985 10986 10984 10983 10983 10982 10981 10981 10981 10981 10979 10979 10979 10979
10898 10899 10900 10901 10899 10901 10910 10916 10924 10928 10931 10938 10939 10943 10945 10945 10943 10944 10948 10952 10954 10957 10959 10961 10963 10965 10968 10969 10971 10974 10975 10977 10978 10979 10981 10982 10982 10980 10981 10979 10979 10978 10978 10979 10978 10978 10978 10976 10976
10892 10893 10893 10892 10892 10898 10904 10912 10919 10923 10927 10931 10933 10937 10938 10941 10940 10938 10940 10944 10948 10953 10956 10958 10960 10961 10964 10966 10968 10971 10972 10974 10975 10976 10977 10979 10978 10978 10977 10977 10978 10977 10976 10976 10976 10975 10975 10973 10972
10886 10886 10885 10886 10886 10892 10904 10906 10912 10915 10919 10923 10924 10927 10930 10930 10931 10933 10934 10937 10941 10945 10950 10952 10955 10957 10959 10961 10963 10965 10968 10970 10971 10972 10973 10974 10975 10976 10975 10974 10974 10974 10974 10973 10975 10972 10972 10971 10969
10880 10880 10879 10881 10884 10888 10896 10900 10902 10904 10913 10917 10918 10917 10921 10924 10925 10928 10929 10930 10933 10937 10941 10945 10948 10951 10953 10955 10957 10959 10962 10964 10966 10968 10969 10970 10972 10972 10972 10970 10971 10971 10970 10971 10970 10969 10969 10968 10967
10872 10871 10873 10877 10878 10880 10887 10892 10893 10892 10901 10904 10906 10908 10911 10913 10915 10920 10922 10922 10923 10931 10935 10940 10943 10946 10948 10950 10952 10954 10956 10958 10960 10963 10964 10966 10968 10969 10970 10969 10968 10968 10967 10966 10966 10964 10964 10963 10962
10864 10864 10865 10869 10873 10872 10876 10879 10881 10881 10886 10891 10892 10897 10900 10902 10903 10905 10909 10913 10914 10918 10926 10930 10938 10940 10942 10944 10945 10947 10949 10952 10953 10956 10958 10960 10963 10965 10966 10966 10964 10965 10964 10962 10961 10960 10958 10958 10958
10856 10857 10858 10862 10862 10863 10865 10868 10870 10869 10870 10877 10879 10883 10888 10891 10891 10893 10898 10904 10908 10908 10914 10923 10926 10932 10934 10936 10937 10939 10942 10945 10947 10949 10951 10954 10957 10959 10961 10962 10961 10960 10960 10958 10956 10954 10952 10953 10952
10850 10852 10852 10853 10855 10855 10855 10856 10858 10860 10858 10863 10868 10871 10875 10879 10881 10889 10896 10899 10900 10900 10902 10910 10918 10920 10923 10927 10929 10932 10934 10937 10939 10941 10944 10946 10950 10952 10954 10956 10956 10957 10956 10955 10953 10951 10949 10947 10947
10844 10845 10845 10844 10844 10846 10844 10846 10846 10848 10851 10852 10854 10859 10863 10866 10872 10876 10883 10887 10889 10890 10892 10896 10905 10911 10914 10918 10922 10924 10926 10928 10930 10934 10936 10940 10943 10945 10946 10949 10950 10951 10951 10951 10950 10949 10945 10942 10941
10836 10836 10836 10835 10834 10834 10834 10835 10835 10835 10838 10839 10840 10843 10850 10855 10858 10863 10866 10873 10874 10878 10883 10886 10892 10898 10902 10909 10913 10916 10918 10921 10923 10925 10929 10932 10934 10937 10940 10941 10943 10945 10944 10945 10945 10945 10941 10939 10936
10829 10827 10826 10827 10825 10823 10823 10822 10823 10822 10823 10824 10825 10825 10830 10837 10840 10846 10852 10856 10862 10866 10871 10874 10878 10884 10889 10895 10901 10905 10908 10911 10915 10919 10921 10924 10927 10929 10933 10935 10935 10937 10937 10938 10938 10939 10940 10935 10932
10820 10817 10816 10817 10816 10815 10811 10809 10809 10809 10811 10812 10811 10812 10811 10818 10825 10830 10836 10842 10847 10852 10860 10861 10863 10866 10875 10881 10887 10892 10896 10901 10906 10910 10912 10915 10918 10921 10924 10926 10928 10929 10929 10931 10932 10932 10934 10932 10928
10811 10808 10806 10803 10804 10805 10799 10798 10799 10796 10796 10799 10800 10797 10796 10798 10806 10813 10817 10826 10834 10840 10845 10846 10849 10853 10857 10866 10871 10876 10883 10889 10896 10901 10904 10907 10910 10913 10916 10918 10920 10922 10922 10923 10926 10925 10925 10926 10924
10801 10800 10798 10795 10794 10793 10788 10782 10784 10781 10784 10782 10782 10783 10781 10781 10785 10792 10800 10806 10815 10825 10828 10830 10833 10836 10839 10849 10858 10863 10869 10877 10884 10889 10894 10895 10898 10902 10907 10910 10912 10915 10916 10916 10918 10919 10918 10919 10918
10790 10788 10788 10786 10783 10782 10778 10771 10766 10765 10768 10766 10765 10764 10766 10765 10767 10772 10779 10786 10793 10803 10810 10814 10816 10820 10823 10829 10840 10850 10856 10861 10868 10875 10879 10883 10886 10891 10897 10901 10903 10907 10909 10909 10911 10912 10912 10912 10911
10779 10776 10773 10772 10774 10769 10767 10758 10754 10749 10748 10746 10745 10744 10746 10747 10748 10748 10755 10762 10771 10779 10789 10793 10800 10802 10806 10811 10823 10832 10840 10846 10852 10861 10866 10869 10875 10880 10887 10892 10895 10900 10900 10901 10903 10905 10906 10906 10904
10769 10765 10763 10762 10759 10754 10751 10745 10745 10739 10733 10723 10724 10723 10722 10723 10726 10730 10736 10738 10747 10756 10767 10776 10780 10783 10786 10792 10801 10812 10822 10828 10836 10845 10851 10857 10861 10868 10877 10882 10886 10891 10892 10891 10894 10898 10901 10901 10899
10756 10753 10749 10747 10746 10741 10735 10729 10728 10722 10719 10714 10706 10702 10703 10703 10705 10711 10713 10716 10723 10733 10740 10751 10757 10764 10769 10773 10778 10790 10801 10811 10820 10827 10836 10843 10849 10855 10864 10871 10876 10881 10881 10884 10887 10890 10893 10894 10894
10745 10740 10736 10733 10731 10730 10723 10713 10714 10710 10701 10695 10692 10689 10683 10681 10683 10687 10691 10695 10702 10709 10716 10723 10729 10737 10744 10753 10758 10768 10776 10788 10799 10809 10818 10826 10834 10841 10849 10857 10864 10871 10873 10876 10879 10881 10884 10884 10885
10731 10730 10724 10722 10718 10716 10716 10698 10701 10698 10689 10682 10677 10669 10669 10664 10663 10664 10668 10674 10677 10682 10691 10697 10702 10711 10719 10728 10737 10743 10752 10764 10779 10789 10800 10808 10819 10829 10836 10843 10852 10859 10864 10867 10869 10872 10875 10876 10876
10717 10718 10714 10710 10708 10703 10700 10694 10681 10681 10677 10670 10664 10658 10652 10647 10646 10644 10647 10651 10655 10656 10661 10670 10678 10686 10692 10698 10708 10722 10734 10745 10755 10768 10782 10793 10803 10814 10825 10830 10838 10846 10852 10856 10860 10864 10867 10866 10865
10706 10704 10701 10700 10696 10691 10689 10686 10668 10669 10660 10654 10652 10647 10639 10633 10630 10628 10629 10631 10633 10636 10641 10649 10658 10664 10671 10678 10686 10700 10714 10725 10733 10748 10763 10778 10788 10799 10809 10816 10823 10835 10842 10846 10851 10853 10856 10856 10857
10692 10690 10688 10686 10683 10676 10673 10671 10658 10659 10649 10642 10634 10631 10628 10622 10614 10612 10612 10615 10615 10616 10620 10625 10630 10641 10651 10657 10662 10675 10691 10702 10716 10727 10741 10755 10768 10781 10792 10802 10809 10819 10829 10835 10840 10843 10846 10847 10847
10675 10674 10674 10673 10668 10661 10657 10657 10644 10645 10641 10632 10624 10619 10611 10606 10603 10599 10598 10599 10600 10598 10598 10603 10608 10616 10625 10636 10644 10657 10670 10685 10697 10707 10719 10734 10749 10763 10775 10782 10793 10804 10813 10827 10825 10833 10836 10838 10837
10661 10658 10657 10660 10656 10652 10640 10639 10626 10623 10628 10623 10617 10609 10602 10595 10591 10589 10586 10584 10582 10581 10582 10584 10588 10594 10605 10617 10625 10634 10647 10662 10675 10686 10696 10712 10730 10744 10755 10766 10778 10787 10797 10806 10813 10822 10826 10828 10830
10645 10644 10642 10640 10639 10641 10633 10630 10608 10596 10607 10607 10606 10598 10593 10585 10580 10575 10573 10573 10569 10566 10566 10567 10569 10573 10580 10590 10601 10609 10621 10635 10650 10665 10674 10692 10706 10725 10738 10750 10761 10769 10782 10793 10801 10811 10816 10818 10819
10627 10629 10628 10621 10625 10626 10622 10621 10600 10587 10592 10590 10591 10586 10579 10574 10566 10562 10559 10557 10554 10553 10553 10554 10556 10558 10562 10568 10576 10581 10589 10605 10620 10634 10650 10669 10686 10702 10719 10734 10747 10757 10767 10778 10789 10798 10803 10807 10810
10605 10610 10606 10607 10603 10604 10608 10609 10582 10570 10578 10571 10573 10572 10567 10558 10550 10544 10540 10540 10538 10539 10540 10542 10541 10541 10543 10545 10551 10557 10566 10581 10595 10610 10624 10645 10665 10680 10696 10715 10731 10744 10753 10763 10774 10785 10790 10796 10801
10582 10582 10577 10578 10586 10584 10579 10597 10568 10563 10555 10555 10552 10553 10549 10542 10534 10530 10526 10522 10520 10520 10523 10523 10522 10525 10523 10526 10531 10537 10546 10555 10568 10585 10603 10618 10640 10657 10676 10697 10716 10731 10743 10751 10762 10771 10779 10785 10789